Preview of NWS' New Version of Forecast
This preview is not operational and should not be used for support decisions.

Regional Weather Roundup (RWR)

Issued by Gray - Portland, ME (GYX)

                            
000
ASUS41 KGYX 171510
RWRGYX
WEATHER ROUNDUP FOR MAINE AND NEW HAMPSHIRE
NATIONAL WEATHER SERVICE GRAY ME
1000 AM EST THU JAN 17 2019

MEZ002-005-006-010-012-015-018-020-021-024-026-027-029-171600-
MAINE
  
CITY           SKY/WX    TMP DP  RH WIND       PRES   REMARKS
PORTLAND       FAIR      15   0  51 VRB6G17   30.40R                  
BAR HARBOR     FAIR      10  -8  44 N9G17     30.36R                  
WISCASSET      FAIR      13  -7  40 MISG      30.39R                  
ROCKLAND       FAIR      12  -5  46 NW7       30.37R                  
FRYEBURG       FAIR      11 -12  35 CALM      30.36R                  
LEWISTONAUBURN FAIR      11  -8  42 NW10      30.38R WCI  -3          
AUGUSTA        FAIR       8  -7  50 NW9       30.37R                  
WATERVILLE     FAIR       8  -8  48 MISG      30.34R                  
BANGOR         FAIR       7  -9  48 NW12      30.36R WCI  -8          
GREENVILLE       N/A     -3 -17  51 NW8       30.22R                  
MILLINOCKET    FAIR       0 -14  51 NW9       30.35R                  
HOULTON        FAIR      -2 -14  56 NW12G22   30.29R WCI -20          
PRESQUE ISLE   NOT AVBL                                               
FRENCHVILLE    FAIR      -9 -19  61 W13       30.22R WCI -29          
CARIBOU        FAIR      -4 -16  56 W9        30.28R                  
$$

NHZ002-005-008-009-011-012-014-171600-
NEW HAMPSHIRE
  
CITY           SKY/WX    TMP DP  RH WIND       PRES   REMARKS
PORTSMOUTH     MOSUNNY   17 -12  27 W13       30.38R WCI   4          
ROCHESTER      FAIR      14  -7  38 NW10      30.37R WCI   1          
NASHUA         FAIR      17  -2  43 NW8       30.42R                  
MANCHESTER     FAIR      15  -4  42 NW10      30.41R WCI   2          
CONCORD        FAIR      12  -2  53 NW9       30.42R                  
LACONIA        FAIR       9  -5  53 W7        30.40R                  
PLYMOUTH       FAIR       8  -8  48 NW3       30.41R                  
BERLIN         FAIR       4  -9  55 CALM      30.32R                  
WHITEFIELD     FAIR       4  -7  60 VRB3      30.35R                  
JAFFREY        FAIR      14  -2  49 CALM      30.33R                  
KEENE          FAIR      13  -1  54 CALM      30.42R                  
LEBANON        FAIR       6  -4  63 CALM      30.42R                  
MT WASHINGTON  NOT AVBL                                               
$$

VTZ005-007-008-171600-
VERMONT
  
CITY           SKY/WX    TMP DP  RH WIND       PRES   REMARKS
ST JOHNSBURY     N/A      0  -7  72 MISG      30.40R                  
MONTPELIER     FAIR      -1  -6  79 CALM      30.39R                  
BURLINGTON     FAIR       4  -6  63 CALM      30.45S                  
$$

MAZ007-012-024-CTZ003-RIZ002-NYZ038-NYZ072-171600-
SOUTHERN NEW ENGLAND AND NY
  
CITY           SKY/WX    TMP DP  RH WIND       PRES   REMARKS
BOSTON         FAIR      21  -5  31 NW13      30.42R WCI   9          
WORCESTER      FAIR      16  -3  43 NW13      30.33R WCI   2          
NANTUCKET      FAIR      27   9  46 N14G24    30.38R WCI  16          
PROVIDENCE     FAIR      24  -1  33 N7        30.41R                  
HARTFORD       PTSUNNY   21  -6  30 N8        30.43R                  
ALBANY         FAIR      14  -3  47 CALM      30.46R                  
NEW YORK CITY  PTSUNNY   28  11  48 N7        30.43R                  
$$

ANZ081-ANZ082-ANZ150-NHZ014-MEZ023>029-171600-
COASTAL MARINE OBSERVATIONS
  
STATION/POSITION TIME  TEMP    WIND        PRES    WAVE
                       AIR SEA DIR/SP/G            HT/PER
                 (UTC) (F)     (DEG/KT/KT) (MB)    (FT/S)
MOUNT DESERT ROC 1500   14     310/ 22/ 28 1027.1R
MATINICUS ROCK   1400   13     320/ 20/ 22 1027.1R
ISLE OF SHOALS   1400   15     310/ 16/ 19 1028.0R
JEFFREYS LEDGE   1408      43                N/A     4/ 5
CASHES LEDGE BUO 1450   23 40              1028.5R   6/ 6
$$

.............KEY..............
   WCI - WIND CHILL
   TC  - TEMPERATURE IN CELSIUS
   VSB - VISIBILITY IN MILES
   HX  - HEAT INDEX
   FAIR- INDICATES FEW OR NO CLOUDS BELOW 12,000 FT, WITH NO 
         SIGNIFICANT WEATHER AND/OR OBSTRUCTIONS TO VISIBILITY.